GAF883 EDDH-EDDK

Flight info

Callsign GAF883
Flight time 0h 43m
Altitude 23000
Route IDEKO7G/33 IDEKO N850 WRB/N0401F220 P12 ESADU T858 KOPAG
Aircraft A319/M-SDE3FGHIRWY/LB1

Departure

Time 2026-05-05 14:30
Airport Hamburg Helmut Schmidt Airport (EDDH)

Arrival

Time 2026-05-05 15:13
Airport Cologne Bonn Airport (EDDK)
Time Latitude Longitude Altitude Speed Heading
2026-05-05 14:07 53.62901 9.99252 41 ft 0 kts 242°
2026-05-05 14:08 53.62901 9.99250 47 ft 0 kts 242°
2026-05-05 14:23 53.62910 9.99278 42 ft 3 kts 235°
2026-05-05 14:23 53.62924 9.99308 46 ft 3 kts 224°
2026-05-05 14:23 53.62942 9.99334 47 ft 3 kts 210°
2026-05-05 14:23 53.62962 9.99347 43 ft 3 kts 174°
2026-05-05 14:24 53.62972 9.99345 47 ft 0 kts 153°
2026-05-05 14:26 53.62965 9.99350 45 ft 5 kts 153°
2026-05-05 14:26 53.62918 9.99391 46 ft 10 kts 153°
2026-05-05 14:27 53.62849 9.99451 47 ft 13 kts 152°
2026-05-05 14:27 53.62794 9.99499 44 ft 14 kts 153°
2026-05-05 14:27 53.62697 9.99581 47 ft 17 kts 153°
2026-05-05 14:27 53.62632 9.99678 45 ft 13 kts 103°
2026-05-05 14:28 53.62693 9.99866 46 ft 18 kts 16°
2026-05-05 14:28 53.62752 9.99846 46 ft 0 kts 332°
2026-05-05 14:29 53.62767 9.99833 43 ft 16 kts 332°
2026-05-05 14:29 53.63141 9.99514 44 ft 104 kts 333°
2026-05-05 14:29 53.63989 9.98782 207 ft 154 kts 336°
2026-05-05 14:30 53.64950 9.97954 925 ft 156 kts 336°
2026-05-05 14:30 53.65920 9.97125 1718 ft 157 kts 337°
2026-05-05 14:30 53.66949 9.96266 2137 ft 174 kts 336°
2026-05-05 14:30 53.68079 9.95326 2593 ft 188 kts 336°
2026-05-05 14:31 53.69322 9.94280 2979 ft 213 kts 335°
2026-05-05 14:31 53.70652 9.93074 3774 ft 218 kts 326°
2026-05-05 14:31 53.71557 9.91035 4651 ft 225 kts 286°
2026-05-05 14:31 53.71584 9.88276 5156 ft 250 kts 259°
2026-05-05 14:32 53.71088 9.85365 5924 ft 263 kts 250°
2026-05-05 14:32 53.70423 9.82466 6891 ft 266 kts 248°
2026-05-05 14:32 53.69729 9.79555 7847 ft 269 kts 249°
2026-05-05 14:32 53.69046 9.76586 8786 ft 272 kts 249°
2026-05-05 14:33 53.68390 9.73577 9724 ft 275 kts 250°
2026-05-05 14:33 53.67743 9.70478 10337 ft 290 kts 251°
2026-05-05 14:33 53.67065 9.67136 10627 ft 313 kts 251°
2026-05-05 14:33 53.66190 9.63673 11067 ft 328 kts 240°
2026-05-05 14:34 53.64767 9.60635 11766 ft 335 kts 225°
2026-05-05 14:34 53.62865 9.58339 12504 ft 341 kts 208°
2026-05-05 14:34 53.60599 9.57037 13234 ft 349 kts 192°
2026-05-05 14:34 53.58173 9.56520 13933 ft 354 kts 189°
2026-05-05 14:35 53.55715 9.56042 14587 ft 357 kts 189°
2026-05-05 14:35 53.53235 9.55560 15252 ft 361 kts 189°
2026-05-05 14:35 53.50729 9.55071 15893 ft 364 kts 189°
2026-05-05 14:35 53.48208 9.54576 16547 ft 367 kts 189°
2026-05-05 14:36 53.45655 9.54071 17199 ft 370 kts 190°
2026-05-05 14:36 53.43087 9.53566 17850 ft 373 kts 190°
2026-05-05 14:36 53.40492 9.53059 18474 ft 377 kts 190°
2026-05-05 14:36 53.37878 9.52551 19047 ft 379 kts 189°
2026-05-05 14:37 53.35250 9.52037 19644 ft 382 kts 190°
2026-05-05 14:37 53.32637 9.51526 20227 ft 385 kts 190°
2026-05-05 14:37 53.29966 9.51001 20815 ft 387 kts 190°
2026-05-05 14:37 53.27284 9.50473 21389 ft 390 kts 190°
2026-05-05 14:38 53.24582 9.49939 21945 ft 392 kts 190°
2026-05-05 14:38 53.21863 9.49404 22478 ft 395 kts 190°
2026-05-05 14:38 53.19127 9.48869 22838 ft 397 kts 189°
2026-05-05 14:38 53.16388 9.48335 22903 ft 396 kts 190°
2026-05-05 14:39 53.13652 9.47807 22902 ft 395 kts 189°
2026-05-05 14:39 53.10916 9.47281 22906 ft 395 kts 189°
2026-05-05 14:39 53.08185 9.46752 22902 ft 395 kts 189°
2026-05-05 14:39 53.05456 9.46224 22901 ft 395 kts 189°
2026-05-05 14:40 53.02726 9.45696 22900 ft 395 kts 189°
2026-05-05 14:40 52.99989 9.45166 22904 ft 401 kts 189°
2026-05-05 14:40 52.97177 9.44605 22901 ft 414 kts 189°
2026-05-05 14:40 52.94276 9.43993 22899 ft 426 kts 190°
2026-05-05 14:41 52.91300 9.43342 22897 ft 437 kts 190°
2026-05-05 14:41 52.88260 9.42676 22899 ft 442 kts 190°
2026-05-05 14:41 52.85201 9.42012 22894 ft 443 kts 189°
2026-05-05 14:41 52.82140 9.41356 22896 ft 444 kts 189°
2026-05-05 14:42 52.79058 9.40701 22895 ft 450 kts 189°
2026-05-05 14:42 52.75930 9.40034 22890 ft 455 kts 189°
2026-05-05 14:42 52.72784 9.39367 22892 ft 456 kts 189°
2026-05-05 14:42 52.69642 9.38703 22892 ft 456 kts 189°
2026-05-05 14:43 52.66487 9.38037 22891 ft 456 kts 189°
2026-05-05 14:43 52.63339 9.37378 22893 ft 456 kts 189°
2026-05-05 14:43 52.62322 9.37164 22892 ft 456 kts 189°
2026-05-05 14:43 52.60476 9.36756 22846 ft 456 kts 189°
2026-05-05 14:44 52.57345 9.35988 22898 ft 455 kts 191°
2026-05-05 14:44 52.54217 9.35150 22895 ft 455 kts 191°
2026-05-05 14:44 52.51135 9.34294 22887 ft 455 kts 191°
2026-05-05 14:44 52.48018 9.33425 22883 ft 454 kts 191°
2026-05-05 14:45 52.44897 9.32569 22874 ft 454 kts 191°
2026-05-05 14:45 52.41773 9.31734 22870 ft 454 kts 190°
2026-05-05 14:45 52.38654 9.30922 22870 ft 455 kts 190°
2026-05-05 14:45 52.35525 9.30119 22867 ft 455 kts 190°
2026-05-05 14:46 52.32400 9.29319 22865 ft 455 kts 190°
2026-05-05 14:46 52.29275 9.28515 22863 ft 455 kts 190°
2026-05-05 14:46 52.26146 9.27706 22864 ft 455 kts 190°
2026-05-05 14:46 52.23020 9.26896 22867 ft 455 kts 189°
2026-05-05 14:47 52.19880 9.26178 22867 ft 455 kts 188°
2026-05-05 14:47 52.16735 9.25571 22867 ft 455 kts 187°
2026-05-05 14:47 52.13585 9.25034 22869 ft 455 kts 187°
2026-05-05 14:47 52.10436 9.24528 22867 ft 455 kts 186°
2026-05-05 14:48 52.07288 9.24021 22865 ft 454 kts 187°
2026-05-05 14:48 52.04143 9.23473 22863 ft 454 kts 188°
2026-05-05 14:48 52.01014 9.22783 22857 ft 454 kts 189°
2026-05-05 14:48 51.97903 9.21973 22860 ft 453 kts 190°
2026-05-05 14:49 51.94792 9.21097 22854 ft 453 kts 191°
2026-05-05 14:49 51.91730 9.20215 22852 ft 453 kts 191°
2026-05-05 14:49 51.88588 9.19321 22851 ft 453 kts 191°
2026-05-05 14:49 51.85479 9.18511 22850 ft 453 kts 189°
2026-05-05 14:50 51.82401 9.17809 22850 ft 452 kts 188°
2026-05-05 14:50 51.79277 9.17162 22844 ft 452 kts 188°
2026-05-05 14:50 51.76151 9.16541 22845 ft 452 kts 188°
2026-05-05 14:50 51.73032 9.15917 22838 ft 452 kts 188°
2026-05-05 14:51 51.69914 9.15274 22841 ft 452 kts 188°
2026-05-05 14:51 51.66795 9.14615 22833 ft 452 kts 188°
2026-05-05 14:51 51.63680 9.13944 22832 ft 452 kts 188°
2026-05-05 14:51 51.60568 9.13268 22829 ft 451 kts 188°
2026-05-05 14:52 51.57455 9.12585 22831 ft 451 kts 189°
2026-05-05 14:52 51.54420 9.11361 22828 ft 450 kts 201°
2026-05-05 14:52 51.51689 9.08923 22828 ft 451 kts 216°
2026-05-05 14:52 51.49451 9.05405 22826 ft 452 kts 231°
2026-05-05 14:53 51.47874 9.01034 22829 ft 455 kts 244°
2026-05-05 14:53 51.46624 8.96370 22836 ft 455 kts 245°
2026-05-05 14:53 51.45371 8.91701 22836 ft 456 kts 245°
2026-05-05 14:53 51.44116 8.87031 22837 ft 456 kts 245°
2026-05-05 14:54 51.42853 8.82364 22837 ft 456 kts 245°
2026-05-05 14:54 51.41587 8.77699 22812 ft 457 kts 244°
2026-05-05 14:54 51.40183 8.73305 22636 ft 439 kts 238°
2026-05-05 14:54 51.38676 8.69180 22447 ft 421 kts 238°
2026-05-05 14:55 51.37231 8.65190 22154 ft 407 kts 238°
2026-05-05 14:55 51.35836 8.61333 21889 ft 395 kts 238°
2026-05-05 14:55 51.34476 8.57567 21630 ft 388 kts 238°
2026-05-05 14:55 51.33131 8.53850 21364 ft 384 kts 238°
2026-05-05 14:56 51.31792 8.50158 21108 ft 383 kts 238°
2026-05-05 14:56 51.30456 8.46483 20850 ft 382 kts 238°
2026-05-05 14:56 51.29119 8.42822 20593 ft 381 kts 238°
2026-05-05 14:56 51.27785 8.39173 20346 ft 380 kts 238°
2026-05-05 14:57 51.26461 8.35542 20057 ft 375 kts 238°
2026-05-05 14:57 51.25161 8.31963 19597 ft 371 kts 238°
2026-05-05 14:57 51.23877 8.28410 19103 ft 368 kts 238°
2026-05-05 14:57 51.22602 8.24883 18618 ft 365 kts 238°
2026-05-05 14:58 51.21333 8.21385 18108 ft 363 kts 238°
2026-05-05 14:58 51.20069 8.17919 17563 ft 359 kts 238°
2026-05-05 14:58 51.18819 8.14495 17049 ft 355 kts 238°
2026-05-05 14:58 51.17581 8.11110 16543 ft 352 kts 238°
2026-05-05 14:59 51.16349 8.07763 16026 ft 349 kts 238°
2026-05-05 14:59 51.15128 8.04446 15526 ft 346 kts 238°
2026-05-05 14:59 51.13918 8.01159 15023 ft 343 kts 238°
2026-05-05 14:59 51.12718 7.97897 14523 ft 340 kts 238°
2026-05-05 15:00 51.11526 7.94660 14022 ft 338 kts 238°
2026-05-05 15:00 51.10741 7.92532 13686 ft 336 kts 238°
2026-05-05 15:00 51.09163 7.88261 12966 ft 333 kts 238°
2026-05-05 15:00 51.07988 7.85106 12461 ft 330 kts 236°
2026-05-05 15:01 51.06560 7.82271 11963 ft 328 kts 224°
2026-05-05 15:01 51.04788 7.79979 11260 ft 333 kts 212°
2026-05-05 15:01 51.02700 7.78312 10574 ft 336 kts 202°
2026-05-05 15:01 51.00632 7.76888 10436 ft 311 kts 203°
2026-05-05 15:02 50.98725 7.75546 10231 ft 291 kts 204°
2026-05-05 15:02 50.96906 7.74247 9860 ft 283 kts 204°
2026-05-05 15:02 50.95127 7.72970 9805 ft 280 kts 204°
2026-05-05 15:02 50.93343 7.71695 9558 ft 283 kts 204°
2026-05-05 15:03 50.91551 7.70419 9100 ft 281 kts 204°
2026-05-05 15:03 50.89779 7.69165 8682 ft 278 kts 204°
2026-05-05 15:03 50.88011 7.67918 8257 ft 279 kts 204°
2026-05-05 15:03 50.86241 7.66672 7924 ft 276 kts 204°
2026-05-05 15:04 50.84516 7.65455 7796 ft 267 kts 204°
2026-05-05 15:04 50.82875 7.64299 7667 ft 258 kts 204°
2026-05-05 15:04 50.81244 7.63148 7538 ft 249 kts 204°
2026-05-05 15:04 50.79701 7.62063 7398 ft 243 kts 204°
2026-05-05 15:05 50.76625 7.59906 6830 ft 241 kts 203°
2026-05-05 15:05 50.75107 7.58848 6585 ft 234 kts 203°
2026-05-05 15:05 50.73659 7.57842 6467 ft 220 kts 204°
2026-05-05 15:06 50.72304 7.56898 6337 ft 207 kts 203°
2026-05-05 15:06 50.71021 7.55991 6141 ft 196 kts 206°
2026-05-05 15:06 50.69934 7.54755 5861 ft 192 kts 224°
2026-05-05 15:06 50.69142 7.53088 5557 ft 191 kts 239°
2026-05-05 15:07 50.68663 7.51037 4848 ft 210 kts 255°
2026-05-05 15:07 50.68310 7.48723 4326 ft 222 kts 258°
2026-05-05 15:07 50.68284 7.46301 4168 ft 217 kts 278°
2026-05-05 15:07 50.68663 7.44083 4121 ft 204 kts 287°
2026-05-05 15:08 50.69079 7.41974 4083 ft 198 kts 286°
2026-05-05 15:08 50.69534 7.40034 4046 ft 181 kts 297°
2026-05-05 15:08 50.70315 7.38451 3987 ft 190 kts 315°
2026-05-05 15:08 50.71301 7.37036 3826 ft 192 kts 317°
2026-05-05 15:09 50.72287 7.35627 3664 ft 191 kts 317°
2026-05-05 15:09 50.73274 7.34213 3536 ft 191 kts 317°
2026-05-05 15:09 50.74255 7.32805 3316 ft 190 kts 317°
2026-05-05 15:09 50.75229 7.31406 3078 ft 188 kts 318°
2026-05-05 15:10 50.76193 7.30020 2827 ft 187 kts 318°
2026-05-05 15:10 50.77150 7.28643 2578 ft 186 kts 319°
2026-05-05 15:10 50.78101 7.27274 2331 ft 184 kts 319°
2026-05-05 15:10 50.79040 7.25922 2086 ft 182 kts 319°
2026-05-05 15:11 50.79971 7.24580 1837 ft 178 kts 319°
2026-05-05 15:11 50.80851 7.23307 1580 ft 169 kts 319°
2026-05-05 15:11 50.81710 7.22081 1377 ft 164 kts 319°
2026-05-05 15:11 50.82553 7.20854 1146 ft 166 kts 317°
2026-05-05 15:12 50.83400 7.19628 950 ft 166 kts 318°
2026-05-05 15:12 50.84268 7.18381 726 ft 173 kts 319°
2026-05-05 15:12 50.85150 7.17102 459 ft 167 kts 319°
2026-05-05 15:12 50.85967 7.15915 302 ft 148 kts 317°
2026-05-05 15:13 50.86629 7.14955 273 ft 106 kts 318°
2026-05-05 15:13 50.87049 7.14354 253 ft 56 kts 318°
2026-05-05 15:13 50.87233 7.14078 245 ft 37 kts 310°
2026-05-05 15:13 50.87317 7.13714 238 ft 30 kts 277°
2026-05-05 15:14 50.87349 7.13412 232 ft 28 kts 280°
2026-05-05 15:14 50.87429 7.13192 232 ft 25 kts 316°
2026-05-05 15:14 50.87513 7.13076 232 ft 11 kts 318°
2026-05-05 15:14 50.87593 7.12958 232 ft 21 kts 316°
2026-05-05 15:15 50.87716 7.12776 232 ft 27 kts 317°
2026-05-05 15:15 50.87768 7.12629 232 ft 21 kts 248°
2026-05-05 15:15 50.87598 7.12463 234 ft 24 kts 198°
2026-05-05 15:15 50.87489 7.12407 232 ft 24 kts 199°
2026-05-05 15:16 50.87333 7.12326 232 ft 23 kts 198°
2026-05-05 15:16 50.87191 7.12251 232 ft 18 kts 198°
2026-05-05 15:16 50.87109 7.12167 233 ft 14 kts 225°
2026-05-05 15:16 50.87037 7.12065 234 ft 16 kts 206°
2026-05-05 15:17 50.86917 7.12053 232 ft 18 kts 170°
2026-05-05 15:17 50.86798 7.12102 233 ft 18 kts 167°
2026-05-05 15:17 50.86677 7.12153 232 ft 19 kts 164°
2026-05-05 15:17 50.86545 7.12205 232 ft 20 kts 165°
2026-05-05 15:18 50.86407 7.12260 232 ft 20 kts 167°
2026-05-05 15:18 50.86333 7.12233 233 ft 11 kts 247°
2026-05-05 15:18 50.86312 7.12115 232 ft 11 kts 251°
2026-05-05 15:18 50.86256 7.12048 234 ft 10 kts 210°
2026-05-05 15:19 50.86218 7.12012 232 ft 2 kts 210°
2026-05-05 15:19 50.86216 7.12011 232 ft 0 kts 210°